Wind_Speed
35 34 34 33 32 32 33 33 32 32 32 33 33 33 33 33 33 33 33 34 34 34 34 35 35 36 36 37 37 37 37 37 38 38 39 39 40 40 41 41 42 42 43
37 36 34 34 33 33 33 33 33 33 34 34 34 34 34 35 35 35 35 35 35 35 35 36 36 37 38 38 39 39 39 39 39 40 40 41 41 42 42 43 43 44 44
38 37 36 35 34 34 34 35 35 35 35 35 35 35 35 36 36 36 36 36 36 36 36 37 38 38 39 40 40 40 40 40 41 41 42 43 42 42 43 44 45 45 46
39 38 38 37 36 36 36 36 36 37 36 36 36 36 37 37 37 37 37 37 37 37 38 38 39 39 40 41 41 41 41 42 43 43 44 45 45 45 45 45 46 47 48
40 39 39 38 38 38 37 37 37 38 38 38 38 38 38 38 38 38 38 38 38 39 39 40 40 41 41 42 42 42 42 43 44 45 45 46 47 48 48 47 47 47 48
40 40 39 39 39 39 39 39 38 38 39 39 39 39 39 39 39 39 39 40 40 40 40 41 41 42 43 43 44 43 44 45 46 47 47 48 48 48 49 49 48 49 49
41 41 41 41 40 40 40 40 40 40 40 40 40 40 40 40 40 41 41 41 41 42 42 42 43 43 44 45 45 45 45 46 47 48 49 49 50 50 51 51 51 51 51
40 41 42 42 42 42 41 41 41 40 41 41 41 42 42 42 42 42 42 43 43 43 43 44 44 45 46 46 46 46 47 48 49 49 50 50 51 52 52 53 53 53 52
40 40 41 41 41 41 41 42 42 42 42 42 42 43 43 43 43 43 44 44 44 45 45 45 45 46 47 47 48 48 48 49 49 50 51 52 52 53 53 54 55 56 56
40 40 40 41 41 42 42 43 43 43 42 43 43 43 43 44 44 44 44 45 45 45 45 46 46 47 48 49 49 49 50 51 51 51 52 53 53 54 55 56 57 57 58
39 39 40 40 41 42 42 42 42 42 43 43 43 43 43 44 44 44 44 45 45 45 46 47 48 48 49 50 51 51 52 52 52 53 54 54 54 55 55 56 57 57 58
39 39 40 39 39 40 41 42 42 42 42 42 43 43 43 44 44 44 45 45 46 46 47 48 49 49 50 51 51 52 52 53 54 54 55 54 54 55 56 57 57 56 56
39 40 40 41 40 40 40 41 41 41 41 41 42 42 43 44 44 44 45 45 46 47 48 48 50 50 51 51 52 52 52 53 53 54 54 54 55 55 56 56 55 55 55
39 40 40 41 40 40 40 40 40 40 41 41 41 42 43 44 44 45 45 46 47 48 48 49 50 50 51 51 51 51 51 52 53 53 54 54 54 54 55 55 55 55 55
38 38 38 39 40 40 40 40 40 41 41 41 41 41 42 44 44 45 46 47 48 49 49 49 50 50 50 50 51 51 51 52 52 53 53 53 53 53 53 53 53 54 55
37 37 37 38 39 40 40 40 41 41 41 42 42 43 43 44 44 45 46 48 48 49 49 49 49 49 49 50 51 51 51 52 52 52 52 51 51 51 52 52 53 54 55
36 36 37 37 38 39 40 40 41 41 42 42 43 43 44 44 44 46 47 47 48 48 47 48 49 49 50 50 51 51 52 52 52 51 50 50 50 50 51 51 53 54 55
36 36 37 37 37 38 39 40 41 42 42 43 43 44 44 45 45 45 45 45 46 47 47 48 48 49 50 50 50 50 50 50 50 49 49 49 49 50 50 51 52 52 53
36 36 37 37 37 37 38 39 40 41 42 42 43 44 44 44 45 45 45 45 46 46 47 47 47 48 49 49 49 49 49 49 48 48 49 50 50 50 51 51 51 52 52
37 36 36 36 37 36 37 37 39 40 41 42 43 43 44 45 45 45 45 45 46 46 46 46 46 47 47 47 48 48 47 47 47 48 49 49 50 50 51 52 52 52 51
37 37 37 37 37 37 37 38 38 39 40 41 42 42 43 44 44 45 45 45 46 45 45 45 45 46 46 45 46 46 46 46 46 47 47 48 49 50 51 51 50 49 48
37 37 37 37 37 38 38 38 39 39 40 41 42 43 43 44 44 44 44 45 45 45 44 44 44 44 44 44 45 45 45 45 45 46 46 47 48 49 49 48 48 47 46
36 37 38 38 38 39 39 39 39 40 40 41 42 42 41 42 43 43 43 43 43 43 42 41 41 41 42 43 43 43 44 45 45 45 46 46 47 47 46 46 45 45 44
37 38 38 38 39 39 39 39 38 39 40 40 40 40 40 41 41 41 41 41 41 41 40 39 40 40 41 42 42 43 44 44 45 44 44 45 44 44 44 44 43 43 43
37 37 38 39 39 39 38 38 38 38 38 39 39 39 39 39 39 39 39 39 39 39 38 38 39 39 40 40 40 41 41 42 42 42 42 43 42 42 42 42 41 42 42
36 36 36 37 37 37 37 37 37 37 37 37 37 37 37 38 38 38 38 38 38 38 38 39 39 39 38 38 38 39 40 40 41 40 40 40 41 40 40 40 41 41 42
Wind_Direction
239 241 242 243 245 246 248 250 251 252 252 254 255 257 259 261 262 263 265 267 268 269 271 272 274 275 277 278 279 280 280 281 281 281 282 283 284 285 286 286 287 287 288
240 241 243 244 245 247 249 251 252 253 254 255 257 258 260 261 262 264 265 267 268 270 271 273 274 276 277 278 280 280 280 281 282 282 283 284 285 285 286 286 287 288 288
240 242 243 244 246 248 250 252 254 255 255 256 257 258 260 261 263 265 267 268 269 270 272 274 275 276 277 278 279 280 280 281 282 283 284 285 285 285 286 287 287 288 288
240 241 243 245 247 249 250 252 254 256 256 257 258 259 260 262 264 265 267 268 269 271 273 274 276 276 277 278 279 280 280 281 282 283 284 285 286 286 286 286 287 288 288
242 243 244 246 247 249 251 253 255 256 257 258 259 259 261 263 264 265 266 268 269 271 272 274 276 277 278 279 280 280 280 281 282 283 284 285 287 288 287 287 287 288 289
244 244 245 247 248 250 252 253 255 256 256 257 258 260 261 263 264 265 266 268 270 271 273 274 275 277 278 279 280 280 281 282 282 284 285 286 287 288 288 288 287 288 289
245 246 247 248 250 252 253 254 255 256 257 257 258 260 262 263 265 266 267 268 269 271 273 274 276 277 278 279 280 280 281 282 284 285 286 286 287 287 288 288 288 288 288
246 247 247 248 250 252 253 254 255 256 257 258 259 260 262 264 265 267 268 268 270 271 272 274 276 277 278 279 280 281 281 283 284 286 287 287 288 288 288 289 288 288 288
246 247 247 248 249 251 252 254 255 256 258 259 260 261 263 264 265 267 268 268 270 271 273 274 276 277 277 279 280 281 282 283 285 286 287 287 288 288 289 289 290 290 289
246 246 246 248 249 251 253 255 256 257 258 259 260 262 264 265 266 266 267 268 270 271 273 274 276 277 278 279 280 281 282 283 285 286 286 287 288 288 289 290 290 291 290
247 247 247 248 250 251 253 255 255 257 258 259 260 261 263 264 266 266 267 268 269 271 273 274 276 277 278 279 280 281 282 283 285 286 286 287 288 289 289 290 290 290 291
249 248 248 249 251 252 252 254 255 257 258 259 260 261 262 264 266 267 268 269 270 271 273 275 276 277 279 280 280 281 283 283 284 285 287 287 288 289 289 290 290 290 291
250 249 249 249 250 252 253 254 255 256 257 258 260 261 262 264 266 267 268 269 270 272 274 275 277 278 279 279 280 281 283 283 284 286 287 288 288 289 289 289 290 291 291
251 251 250 250 250 251 253 253 255 256 258 259 260 261 263 265 266 267 268 269 271 273 275 276 277 278 279 280 281 281 283 284 286 287 288 288 289 289 289 290 290 291 292
253 253 252 251 251 251 252 254 255 257 258 259 260 262 264 265 266 268 269 270 272 274 276 277 278 279 280 280 281 282 283 285 286 288 288 289 289 290 290 290 291 292 292
253 252 252 251 250 251 252 254 255 257 258 259 260 261 264 266 267 269 271 271 273 275 276 277 278 279 281 282 283 283 284 286 287 288 289 289 289 290 290 291 292 293 293
252 251 251 251 252 252 252 253 254 256 257 258 260 262 264 266 268 269 271 272 273 275 276 277 278 280 281 282 283 284 285 286 288 288 289 289 289 290 291 292 293 294 294
252 252 252 252 253 253 253 254 255 256 258 258 260 263 265 267 269 271 272 273 274 275 276 278 279 281 282 283 283 284 285 287 288 289 289 289 290 291 291 292 293 294 295
251 252 252 252 254 255 255 256 256 257 259 259 261 263 265 267 269 270 272 273 274 276 278 279 280 281 282 283 283 284 285 286 287 288 289 290 291 292 292 293 294 295 296
251 250 251 252 254 256 257 258 258 259 260 261 262 264 265 267 269 270 271 273 275 276 278 279 280 281 282 283 283 284 285 286 287 288 289 290 291 292 292 293 294 295 296
252 250 251 253 255 257 259 260 260 262 263 264 264 265 267 268 269 271 271 272 274 276 278 279 280 281 282 282 284 285 286 287 288 289 289 290 292 292 293 294 295 295 296
252 252 253 254 256 259 260 261 261 263 264 266 267 267 268 270 270 271 272 273 274 276 277 279 280 282 282 283 285 286 287 289 289 290 290 291 292 293 294 295 295 295 297
253 253 254 256 258 260 261 262 263 265 266 267 268 269 270 270 271 271 272 272 274 275 277 278 279 280 282 283 285 286 288 289 290 291 292 293 294 294 294 294 295 296 297
253 254 255 256 258 260 261 263 265 267 267 268 269 269 268 269 270 271 271 272 273 274 276 277 279 281 283 284 286 288 289 290 291 292 293 294 295 295 295 295 296 296 298
253 254 255 257 258 260 262 263 265 266 267 267 266 267 267 267 268 268 269 270 271 273 275 278 280 283 284 286 287 288 289 290 291 293 294 294 295 295 295 295 297 298 299
254 254 254 257 259 260 261 263 265 266 266 266 266 267 266 267 266 266 268 269 271 274 277 279 282 284 285 286 287 288 290 291 293 294 295 296 296 296 297 296 297 298 300
Height
5771 5774 5777 5779 5782 5784 5787 5789 5791 5792 5794 5796 5797 5798 5799 5801 5801 5802 5803 5803 5803 5803 5803 5803 5803 5802 5801 5800 5799 5798 5796 5795 5793 5792 5790 5789 5786 5784 5782 5779 5777 5774 5772
5763 5766 5769 5772 5775 5777 5779 5781 5783 5785 5786 5788 5790 5791 5792 5793 5793 5794 5794 5795 5795 5795 5795 5795 5794 5793 5793 5791 5790 5789 5787 5786 5784 5783 5781 5779 5778 5775 5772 5769 5767 5764 5761
5755 5758 5761 5764 5767 5769 5771 5773 5775 5776 5778 5780 5781 5782 5783 5784 5785 5786 5786 5786 5786 5786 5786 5786 5785 5784 5783 5782 5781 5779 5778 5776 5774 5772 5771 5769 5767 5765 5763 5760 5756 5753 5750
5746 5749 5753 5756 5758 5761 5763 5765 5766 5768 5770 5771 5772 5774 5775 5776 5777 5777 5777 5777 5777 5777 5777 5777 5776 5775 5774 5773 5771 5769 5768 5766 5764 5762 5760 5758 5755 5753 5752 5750 5746 5742 5738
5737 5741 5744 5747 5749 5752 5754 5756 5757 5759 5761 5762 5763 5765 5766 5767 5767 5768 5768 5768 5768 5768 5767 5767 5766 5765 5764 5762 5761 5759 5757 5755 5753 5751 5749 5746 5744 5741 5738 5737 5735 5731 5727
5728 5731 5734 5737 5740 5742 5745 5747 5749 5750 5751 5752 5754 5755 5756 5757 5758 5758 5758 5758 5758 5758 5757 5757 5756 5754 5753 5752 5750 5748 5746 5744 5742 5740 5737 5735 5732 5729 5726 5724 5722 5719 5716
5719 5722 5725 5728 5730 5732 5735 5737 5739 5740 5741 5742 5744 5745 5746 5747 5748 5748 5748 5748 5748 5748 5747 5746 5745 5744 5742 5740 5739 5737 5735 5733 5731 5728 5725 5723 5720 5716 5713 5710 5708 5706 5703
5709 5712 5715 5718 5720 5722 5724 5726 5728 5730 5731 5732 5734 5735 5736 5737 5737 5737 5737 5737 5737 5737 5736 5735 5734 5732 5730 5729 5727 5726 5724 5721 5719 5716 5713 5710 5707 5703 5700 5697 5693 5691 5689
5699 5702 5704 5707 5709 5712 5714 5716 5718 5719 5721 5722 5723 5724 5725 5726 5726 5726 5726 5726 5726 5725 5724 5723 5722 5720 5719 5717 5716 5714 5712 5709 5706 5704 5700 5697 5694 5690 5686 5683 5679 5675 5673
5689 5692 5694 5697 5699 5701 5703 5705 5706 5708 5710 5711 5712 5713 5714 5715 5715 5715 5715 5715 5714 5714 5713 5712 5710 5708 5707 5705 5703 5702 5699 5697 5694 5691 5687 5684 5680 5677 5673 5669 5664 5660 5656
5679 5681 5684 5686 5688 5690 5692 5694 5696 5697 5699 5700 5701 5702 5703 5703 5703 5703 5703 5703 5703 5702 5701 5700 5698 5696 5695 5693 5691 5689 5686 5683 5681 5678 5674 5671 5667 5663 5659 5655 5651 5646 5641
5668 5671 5673 5676 5677 5679 5681 5683 5685 5686 5687 5689 5690 5690 5691 5691 5692 5692 5691 5691 5691 5690 5689 5688 5686 5684 5682 5680 5678 5676 5673 5670 5667 5664 5660 5657 5653 5649 5645 5641 5637 5632 5628
5657 5660 5662 5665 5667 5669 5670 5672 5674 5675 5676 5677 5678 5679 5680 5680 5680 5680 5680 5679 5679 5678 5677 5676 5674 5672 5670 5667 5665 5662 5659 5657 5654 5650 5647 5643 5639 5635 5631 5627 5623 5618 5614
5647 5649 5652 5654 5656 5658 5660 5661 5663 5664 5665 5666 5667 5668 5669 5669 5669 5669 5668 5668 5667 5666 5665 5663 5661 5659 5657 5654 5652 5649 5646 5644 5640 5637 5633 5629 5625 5621 5617 5613 5609 5604 5600
5636 5638 5641 5643 5645 5647 5649 5650 5652 5653 5654 5655 5656 5657 5657 5657 5657 5657 5657 5656 5655 5654 5653 5651 5649 5647 5644 5642 5639 5636 5634 5630 5627 5624 5620 5615 5611 5607 5603 5599 5595 5591 5586
5626 5628 5629 5631 5633 5635 5637 5639 5641 5642 5643 5644 5645 5645 5646 5646 5646 5646 5645 5644 5643 5642 5640 5638 5636 5634 5632 5629 5626 5623 5620 5617 5614 5610 5607 5602 5598 5594 5590 5586 5581 5577 5572
5615 5617 5619 5620 5622 5624 5626 5627 5629 5630 5631 5632 5633 5634 5634 5634 5634 5634 5633 5632 5631 5629 5628 5626 5624 5622 5619 5616 5613 5610 5607 5604 5601 5597 5593 5590 5586 5581 5577 5573 5568 5563 5558
5605 5607 5608 5610 5612 5613 5615 5616 5617 5619 5620 5620 5621 5622 5622 5623 5622 5622 5621 5620 5619 5618 5616 5614 5612 5609 5607 5604 5601 5597 5594 5591 5588 5584 5580 5577 5573 5568 5564 5560 5556 5550 5545
5595 5596 5598 5600 5601 5603 5604 5605 5606 5607 5608 5609 5609 5610 5610 5611 5610 5610 5609 5608 5607 5605 5604 5602 5599 5597 5594 5591 5587 5584 5582 5579 5575 5572 5568 5564 5560 5556 5551 5547 5543 5538 5532
5584 5586 5588 5590 5591 5593 5594 5594 5595 5596 5597 5597 5598 5598 5598 5599 5598 5598 5597 5596 5595 5593 5592 5590 5587 5584 5582 5579 5575 5572 5569 5567 5563 5560 5556 5551 5547 5543 5538 5533 5529 5524 5519
5574 5576 5578 5579 5581 5582 5583 5584 5585 5585 5586 5586 5587 5587 5587 5587 5587 5586 5585 5584 5583 5581 5580 5578 5575 5573 5570 5566 5563 5560 5557 5554 5551 5547 5543 5539 5534 5529 5525 5520 5515 5510 5506
5564 5566 5568 5569 5571 5572 5573 5573 5574 5575 5575 5575 5575 5575 5575 5575 5575 5574 5573 5572 5571 5569 5568 5566 5564 5561 5558 5555 5552 5548 5545 5541 5538 5534 5530 5526 5521 5517 5512 5507 5503 5498 5493
5554 5556 5557 5559 5560 5561 5562 5563 5563 5563 5564 5564 5564 5564 5563 5563 5563 5562 5561 5560 5559 5557 5556 5554 5552 5550 5547 5543 5540 5537 5533 5529 5525 5522 5518 5513 5509 5504 5500 5495 5491 5487 5482
5545 5546 5547 5549 5550 5551 5551 5552 5553 5553 5553 5553 5552 5552 5552 5552 5551 5550 5549 5549 5548 5546 5545 5543 5541 5539 5536 5533 5529 5526 5522 5518 5514 5510 5506 5501 5496 5492 5488 5484 5479 5475 5471
5534 5535 5537 5538 5539 5540 5541 5541 5541 5541 5541 5541 5541 5541 5541 5540 5540 5539 5538 5537 5537 5535 5534 5532 5530 5528 5525 5522 5519 5515 5511 5507 5503 5499 5494 5490 5486 5481 5477 5472 5468 5464 5460
5524 5525 5526 5528 5529 5529 5530 5530 5530 5530 5530 5531 5531 5530 5530 5530 5529 5529 5528 5527 5526 5524 5523 5521 5519 5516 5514 5511 5508 5504 5500 5496 5492 5488 5484 5479 5475 5471 5466 5462 5458 5454 5449